Content
SEND FEEDBACK

Daily
Averages
Monthly
Summary
Mexico

OCUM, QUINTANA ROO


Home > North America > Mexico > Quintana Roo
Elevation: 108 feet     Latitude: 18 33N     Longitude: 088 29W

WEATHER
 
SELECT A DAY
Number of Records: 125,648;   Date Range: 1/1/95 - 11/25/14
 
SHARE

PRINT THIS DATA

[ ← Previous Day ]
WEATHER ALMANAC - JULY 2, 2014
[ Next Day → ]
[ °C ]   °F
Weather ElementAverageHighLow
Temperature85.7 °F93 °F (12:50 pm)82 °F (6:50 am)
Dewpoint75.8 °F78 °F (9:50 am)75 °F (12:50 am)
Humidity70.2 %79 % (6:51 am)49 % (12:50 pm)
Barometer29.95 in29.99 in (11:43 am)29.90 in (3:51 pm)
Wind Speed9.2 mph13.8 mph (4:52 pm)
Weather ElementAverage
Visibility6.5 mi
Wind DirectionE (94.2 °)

Weather ElementTotal
Precipitation---
Cooling Degree Days22.5 (Base 65)
Growing Degree Days37.5 (Base 50)
Averaged from 24 records on July 2, 2014
WEATHER CONDITIONS BREAKOUT
WIND DIRECTION BREAKOUT
WEATHER BY HOUR - JULY 2, 2014
[ °C ]   °F
Local TimeTemperatureDewpointHumidityBarometerVisibilityWind DirectionWind SpeedGust SpeedPrecipitationEventsConditions
12:50 AM82.0 °F76.0 °F78 %29.97 in5.0 miEast (90°)4.5 mphScattered Clouds
3:50 AM82.0 °F75.0 °F75 %29.91 in5.0 miEast (90°)6.7 mphPartly Cloudy
6:03 AM82.4 °F75.2 °F79 %29.90 in7.0 miEast (90°)6.9 mphMostly Cloudy
6:50 AM82.0 °F75.0 °F74 %29.93 in6.0 miEast (90°)4.5 mphPartly Cloudy
6:55 AM82.4 °F75.2 °F79 %29.93 in7.0 miEast (90°)9.2 mphMostly Cloudy
7:40 AM82.4 °F75.2 °F79 %29.93 in7.0 miEast (100°)11.5 mphMostly Cloudy
8:42 AM84.2 °F75.2 °F74 %29.96 in7.0 miEast (90°)11.5 mphMostly Cloudy
9:41 AM84.2 °F75.2 °F74 %29.98 in7.0 miEast (100°)11.5 mphMostly Cloudy
9:50 AM87.0 °F78.0 °F67 %29.99 in6.0 miEast (90°)6.7 mphPartly Cloudy
10:41 AM86.0 °F75.2 °F70 %29.97 in7.0 miEast (90°)11.5 mphMostly Cloudy
11:40 AM86.0 °F75.2 °F70 %29.98 in7.0 miEast (100°)9.2 mphMostly Cloudy
12:41 PM87.8 °F75.2 °F66 %29.98 in7.0 miEast (90°)11.5 mphMostly Cloudy
12:50 PM93.0 °F77.0 °F51 %29.99 in6.0 miEast (90°)6.7 mphScattered Clouds
1:43 PM87.8 °F75.2 °F66 %29.95 in7.0 miEast (90°)9.2 mphMostly Cloudy
2:41 PM87.8 °F75.2 °F66 %29.94 in7.0 miEast (100°)11.5 mphMostly Cloudy
3:50 PM92.0 °F75.0 °F49 %29.94 in6.0 miESE (110°)6.7 mphScattered Clouds
3:55 PM87.8 °F77.0 °F70 %29.92 in7.0 miEast (90°)11.5 mphScattered Clouds
4:53 PM87.8 °F77.0 °F70 %29.90 in7.0 miEast (90°)11.5 mphScattered Clouds
5:50 PM87.8 °F77.0 °F70 %29.90 in7.0 miESE (120°)11.5 mphScattered Clouds
6:50 PM87.0 °F75.0 °F60 %29.94 in6.0 miEast (100°)6.7 mphScattered Clouds
6:53 PM86.0 °F77.0 °F74 %29.93 in7.0 miESE (120°)13.8 mphScattered Clouds
7:48 PM84.2 °F77.0 °F79 %29.94 in7.0 miENE (60°)11.5 mphScattered Clouds
8:56 PM84.2 °F75.2 °F74 %29.94 in7.0 miEast (90°)11.5 mphScattered Clouds
9:50 PM84.0 °F76.0 °F70 %29.98 in5.0 miEast (90°)4.5 mphScattered Clouds
Hourly data recorded from MMCM, located miles away from Ocum, Quintana Roo







STORIES FROM OUR PARTNERS